Torna al catalogo

INTELSAT 2-F1

AttivoComunicazioniHEO
NORAD 2514·PAYLOAD· XX

Lanciato Oct 26, 1966 da Cape Canaveral Space Force Station

Loading…

Prossimi Passaggi (prossime 24 ore)

TLE

AggiornatoSource: Space-Track

Epoca: Sep 14, 2026, 09:19 UTC

1 02514U 66096A   26257.38827643 -.00000221  00000-0  00000-0 0  9998
2 02514  18.3079  38.9939 6388485 211.6313  85.5708  2.00314862 96602

Traccia INTELSAT 2-F1 in tempo reale con AllMySat

Download on the App Store